Location: Unspecified
(0.0000°N, 0.0000°E)
Time: 14:53:05
(UTC+00:00)

deb Briz - Pass Details

Date: 18 February 2026
Orbit: 1589 x 2054 km, 64.9° (Epoch: 5 March)

Event Time Altitude Azimuth Distance (km) Brightness Sun altitude
Rises 04:54:28 0° 203° (SSW) 5,260 ? -19.4°
Reaches altitude 10° 04:57:48 10° 203° (SSW) 4,203 ? -18.6°
Maximum altitude 05:08:23 84° 290° (WNW) 1,733 ? -16.0°
Drops below altitude 10° 05:18:02 10° 19° (NNE) 3,859 ? -13.7°
Sets 05:20:59 0° 20° (NNE) 4,813 ? -13.0°
